Time,TemperatureF,DewpointF,PressureIn,WindDirection,WindDirectionDegrees,WindSpeedMPH,WindSpeedGustMPH,Humidity,HourlyPrecipIn,Conditions,Clouds,dailyrainin,SoftwareType,DateUTC
2013-02-20 00:00:00,17.5,10.8,29.88,WNW,293,6.5,10.5,75,0.00,,,0.00,WUHU216HW,2013-02-20 05:00:00,
2013-02-20 00:05:00,17.3,10.6,29.88,WNW,293,6.3,13.0,75,0.00,,,0.00,WUHU216HW,2013-02-20 05:05:00,
2013-02-20 00:10:00,17.3,10.6,29.88,West,270,13.0,16.6,75,0.00,,,0.00,WUHU216HW,2013-02-20 05:10:00,
2013-02-20 00:15:00,17.3,10.6,29.88,WSW,248,9.4,16.6,75,0.00,,,0.00,WUHU216HW,2013-02-20 05:15:00,
2013-02-20 00:20:00,17.3,10.6,29.89,WNW,293,6.7,13.0,75,0.00,,,0.00,WUHU216HW,2013-02-20 05:20:00,
2013-02-20 00:25:00,17.3,10.6,29.89,WSW,248,7.2,11.6,75,0.00,,,0.00,WUHU216HW,2013-02-20 05:25:00,
2013-02-20 00:30:00,17.1,10.8,29.89,West,270,5.6,14.3,76,0.00,,,0.00,WUHU216HW,2013-02-20 05:30:00,
2013-02-20 00:35:00,17.1,10.8,29.89,NNW,338,9.2,14.3,76,0.00,,,0.00,WUHU216HW,2013-02-20 05:35:00,
2013-02-20 00:40:00,17.1,10.8,29.89,West,270,9.2,10.7,76,0.00,,,0.00,WUHU216HW,2013-02-20 05:40:00,
2013-02-20 00:45:00,17.1,10.8,29.89,West,270,10.1,15.7,76,0.00,,,0.00,WUHU216HW,2013-02-20 05:45:00,
2013-02-20 00:50:00,17.1,10.8,29.89,West,270,8.5,15.7,76,0.00,,,0.00,WUHU216HW,2013-02-20 05:50:00,
2013-02-20 00:55:00,17.1,10.8,29.89,WSW,248,10.1,14.1,76,0.00,,,0.00,WUHU216HW,2013-02-20 05:55:00,
2013-02-20 01:00:00,17.1,10.8,29.89,West,270,4.7,14.1,76,0.00,,,0.00,WUHU216HW,2013-02-20 06:00:00,
2013-02-20 01:05:00,17.1,10.8,29.89,WNW,293,6.9,12.3,76,0.00,,,0.00,WUHU216HW,2013-02-20 06:05:00,
2013-02-20 01:10:00,17.1,10.8,29.89,WNW,293,5.1,10.5,76,0.00,,,0.00,WUHU216HW,2013-02-20 06:10:00,
2013-02-20 01:15:00,17.1,11.1,29.90,West,270,6.5,12.5,77,0.00,,,0.00,WUHU216HW,2013-02-20 06:15:00,
2013-02-20 01:20:00,17.1,11.1,29.90,West,270,10.1,14.3,77,0.00,,,0.00,WUHU216HW,2013-02-20 06:20:00,
2013-02-20 01:25:00,17.1,11.1,29.90,WNW,293,7.2,14.3,77,0.00,,,0.00,WUHU216HW,2013-02-20 06:25:00,
2013-02-20 01:30:00,17.3,11.3,29.90,WSW,248,5.4,13.4,77,0.00,,,0.00,WUHU216HW,2013-02-20 06:30:00,
2013-02-20 01:35:00,17.3,11.3,29.90,West,270,8.3,10.7,77,0.00,,,0.00,WUHU216HW,2013-02-20 06:35:00,
2013-02-20 01:40:00,17.1,11.1,29.91,WNW,293,5.8,10.7,77,0.00,,,0.00,WUHU216HW,2013-02-20 06:40:00,
2013-02-20 01:45:00,17.1,11.1,29.91,WNW,293,10.5,13.2,77,0.00,,,0.00,WUHU216HW,2013-02-20 06:45:00,
2013-02-20 01:50:00,17.1,11.1,29.91,WNW,293,10.5,13.2,77,0.00,,,0.00,WUHU216HW,2013-02-20 06:50:00,
2013-02-20 01:55:00,17.1,11.1,29.91,West,270,9.2,15.0,77,0.00,,,0.00,WUHU216HW,2013-02-20 06:55:00,
2013-02-20 02:00:00,17.1,11.1,29.91,WNW,293,5.4,15.0,77,0.00,,,0.00,WUHU216HW,2013-02-20 07:00:00,
2013-02-20 02:05:00,17.1,11.1,29.91,SW,225,7.4,11.9,77,0.00,,,0.00,WUHU216HW,2013-02-20 07:05:00,
2013-02-20 02:10:00,17.1,11.1,29.91,West,270,10.3,11.4,77,0.00,,,0.00,WUHU216HW,2013-02-20 07:10:00,
2013-02-20 02:15:00,17.1,11.1,29.91,NW,315,7.8,11.4,77,0.00,,,0.00,WUHU216HW,2013-02-20 07:15:00,
2013-02-20 02:20:00,17.1,11.1,29.91,West,270,6.9,14.1,77,0.00,,,0.00,WUHU216HW,2013-02-20 07:20:00,
2013-02-20 02:25:00,17.1,11.1,29.91,West,270,6.9,14.8,77,0.00,,,0.00,WUHU216HW,2013-02-20 07:25:00,
2013-02-20 02:30:00,17.1,11.1,29.91,WSW,248,6.5,15.4,77,0.00,,,0.00,WUHU216HW,2013-02-20 07:30:00,
2013-02-20 02:35:00,17.1,11.1,29.92,SW,225,6.0,15.4,77,0.00,,,0.00,WUHU216HW,2013-02-20 07:35:00,
2013-02-20 02:40:00,17.1,11.1,29.92,NW,315,7.4,14.1,77,0.00,,,0.00,WUHU216HW,2013-02-20 07:40:00,
2013-02-20 02:45:00,17.3,11.3,29.92,West,270,5.8,13.6,77,0.00,,,0.00,WUHU216HW,2013-02-20 07:45:00,
2013-02-20 02:50:00,17.3,11.3,29.92,West,270,7.6,13.6,77,0.00,,,0.00,WUHU216HW,2013-02-20 07:50:00,
2013-02-20 02:55:00,17.3,11.3,29.92,West,270,4.9,12.1,77,0.00,,,0.00,WUHU216HW,2013-02-20 07:55:00,
2013-02-20 03:00:00,17.3,11.3,29.92,SW,225,11.9,11.9,77,0.00,,,0.00,WUHU216HW,2013-02-20 08:00:00,
2013-02-20 03:05:00,17.3,11.3,29.92,WSW,248,3.4,11.9,77,0.00,,,0.00,WUHU216HW,2013-02-20 08:05:00,
2013-02-20 03:10:00,17.3,11.3,29.92,WNW,293,12.5,12.5,77,0.00,,,0.00,WUHU216HW,2013-02-20 08:10:00,
2013-02-20 03:15:00,17.3,11.3,29.93,West,270,9.6,13.4,77,0.00,,,0.00,WUHU216HW,2013-02-20 08:15:00,
2013-02-20 03:20:00,17.3,11.3,29.92,West,270,6.3,13.4,77,0.00,,,0.00,WUHU216HW,2013-02-20 08:20:00,
2013-02-20 03:25:00,17.3,11.3,29.92,West,270,6.3,12.5,77,0.00,,,0.00,WUHU216HW,2013-02-20 08:25:00,
2013-02-20 03:30:00,17.3,10.9,29.92,West,270,9.8,12.8,76,0.00,,,0.00,WUHU216HW,2013-02-20 08:30:00,
2013-02-20 03:35:00,17.3,10.9,29.92,WNW,293,12.1,15.2,76,0.00,,,0.00,WUHU216HW,2013-02-20 08:35:00,
2013-02-20 03:40:00,17.3,10.9,29.92,WNW,293,8.3,15.2,76,0.00,,,0.00,WUHU216HW,2013-02-20 08:40:00,
2013-02-20 03:45:00,17.3,10.6,29.93,NW,315,9.2,14.3,75,0.00,,,0.00,WUHU216HW,2013-02-20 08:45:00,
2013-02-20 03:50:00,17.1,10.4,29.94,WNW,293,12.3,14.3,75,0.00,,,0.00,WUHU216HW,2013-02-20 08:50:00,
2013-02-20 03:55:00,17.1,10.8,29.94,West,270,13.4,15.9,76,0.00,,,0.00,WUHU216HW,2013-02-20 08:55:00,
2013-02-20 04:00:00,16.9,10.3,29.94,WNW,293,15.7,15.9,75,0.00,,,0.00,WUHU216HW,2013-02-20 09:00:00,
2013-02-20 04:05:00,16.9,10.3,29.94,WNW,293,4.3,17.7,75,0.00,,,0.00,WUHU216HW,2013-02-20 09:05:00,
2013-02-20 04:10:00,16.9,10.0,29.94,WNW,293,7.4,17.7,74,0.00,,,0.00,WUHU216HW,2013-02-20 09:10:00,
2013-02-20 04:15:00,16.7,9.8,29.94,WNW,293,8.9,13.6,74,0.00,,,0.00,WUHU216HW,2013-02-20 09:15:00,
2013-02-20 04:20:00,16.7,9.8,29.94,NNW,338,10.1,12.1,74,0.00,,,0.00,WUHU216HW,2013-02-20 09:20:00,
2013-02-20 04:25:00,16.7,9.8,29.95,North,0,7.2,12.1,74,0.00,,,0.00,WUHU216HW,2013-02-20 09:25:00,
2013-02-20 04:30:00,16.6,9.6,29.95,WNW,293,4.7,12.1,74,0.00,,,0.00,WUHU216HW,2013-02-20 09:30:00,
2013-02-20 04:35:00,16.6,9.6,29.95,WNW,293,10.3,12.8,74,0.00,,,0.00,WUHU216HW,2013-02-20 09:35:00,
2013-02-20 04:40:00,16.4,9.5,29.95,WNW,293,11.2,12.8,74,0.00,,,0.00,WUHU216HW,2013-02-20 09:40:00,
2013-02-20 04:45:00,16.2,9.3,29.96,West,270,9.2,12.3,74,0.00,,,0.00,WUHU216HW,2013-02-20 09:45:00,
2013-02-20 04:50:00,16.2,9.0,29.96,West,270,7.4,12.1,73,0.00,,,0.00,WUHU216HW,2013-02-20 09:50:00,
2013-02-20 04:55:00,16.2,9.0,29.97,West,270,7.6,12.3,73,0.00,,,0.00,WUHU216HW,2013-02-20 09:55:00,
2013-02-20 05:00:00,16.2,9.0,29.97,NNW,338,9.8,13.4,73,0.00,,,0.00,WUHU216HW,2013-02-20 10:00:00,
2013-02-20 05:05:00,16.2,9.0,29.97,WNW,293,4.7,13.4,73,0.00,,,0.00,WUHU216HW,2013-02-20 10:05:00,
2013-02-20 05:10:00,16.2,9.0,29.97,WSW,248,10.7,12.3,73,0.00,,,0.00,WUHU216HW,2013-02-20 10:10:00,
2013-02-20 05:15:00,16.2,9.0,29.97,WNW,293,10.5,15.2,73,0.00,,,0.00,WUHU216HW,2013-02-20 10:15:00,
2013-02-20 05:20:00,16.0,8.8,29.97,WNW,293,9.2,15.2,73,0.00,,,0.00,WUHU216HW,2013-02-20 10:20:00,
2013-02-20 05:25:00,16.0,8.8,29.97,NW,315,9.2,10.7,73,0.00,,,0.00,WUHU216HW,2013-02-20 10:25:00,
2013-02-20 05:30:00,16.0,8.8,29.97,West,270,8.5,11.0,73,0.00,,,0.00,WUHU216HW,2013-02-20 10:30:00,
2013-02-20 05:35:00,16.0,8.8,29.97,West,270,9.8,11.4,73,0.00,,,0.00,WUHU216HW,2013-02-20 10:35:00,
2013-02-20 05:40:00,16.0,8.8,29.98,West,270,6.0,11.4,73,0.00,,,0.00,WUHU216HW,2013-02-20 10:40:00,
2013-02-20 05:45:00,16.0,8.8,29.98,West,270,6.0,15.0,73,0.00,,,0.00,WUHU216HW,2013-02-20 10:45:00,
2013-02-20 05:50:00,16.0,8.8,29.98,WSW,248,11.4,15.0,73,0.00,,,0.00,WUHU216HW,2013-02-20 10:50:00,
2013-02-20 05:55:00,16.0,8.8,29.98,WNW,293,8.5,13.4,73,0.00,,,0.00,WUHU216HW,2013-02-20 10:55:00,
2013-02-20 06:00:00,16.0,8.8,29.98,NW,315,6.3,12.1,73,0.00,,,0.00,WUHU216HW,2013-02-20 11:00:00,
2013-02-20 06:05:00,15.8,8.6,29.98,West,270,11.4,11.4,73,0.00,,,0.00,WUHU216HW,2013-02-20 11:05:00,
2013-02-20 06:10:00,15.7,8.5,29.99,West,270,6.3,11.4,73,0.00,,,0.00,WUHU216HW,2013-02-20 11:10:00,
2013-02-20 06:15:00,15.7,8.5,29.99,West,270,7.6,11.4,73,0.00,,,0.00,WUHU216HW,2013-02-20 11:15:00,
2013-02-20 06:20:00,15.7,8.5,29.99,West,270,9.2,11.4,73,0.00,,,0.00,WUHU216HW,2013-02-20 11:20:00,
2013-02-20 06:25:00,15.5,8.3,29.99,West,270,2.9,12.1,73,0.00,,,0.00,WUHU216HW,2013-02-20 11:25:00,
2013-02-20 06:30:00,15.5,8.3,29.99,NW,315,9.8,12.1,73,0.00,,,0.00,WUHU216HW,2013-02-20 11:30:00,
2013-02-20 06:35:00,15.5,8.3,29.99,SSW,203,7.2,14.3,73,0.00,,,0.00,WUHU216HW,2013-02-20 11:35:00,
2013-02-20 06:40:00,15.5,8.3,29.99,NW,315,4.7,14.3,73,0.00,,,0.00,WUHU216HW,2013-02-20 11:40:00,
2013-02-20 06:45:00,15.5,8.3,29.99,West,270,9.2,13.6,73,0.00,,,0.00,WUHU216HW,2013-02-20 11:45:00,
2013-02-20 06:50:00,15.5,8.3,30.00,NW,315,7.8,13.2,73,0.00,,,0.00,WUHU216HW,2013-02-20 11:50:00,
2013-02-20 06:55:00,15.7,8.5,30.00,SW,225,9.2,13.9,73,0.00,,,0.00,WUHU216HW,2013-02-20 11:55:00,
2013-02-20 07:00:00,15.5,8.3,30.00,WNW,293,6.9,13.9,73,0.00,,,0.00,WUHU216HW,2013-02-20 12:00:00,
2013-02-20 07:05:00,15.5,8.3,30.00,West,270,6.9,10.3,73,0.00,,,0.00,WUHU216HW,2013-02-20 12:05:00,
2013-02-20 07:10:00,15.7,8.5,30.00,West,270,4.7,12.1,73,0.00,,,0.00,WUHU216HW,2013-02-20 12:10:00,
2013-02-20 07:15:00,15.7,8.5,30.01,WNW,293,6.9,12.1,73,0.00,,,0.00,WUHU216HW,2013-02-20 12:15:00,
2013-02-20 07:20:00,15.7,8.5,30.01,West,270,5.1,10.1,73,0.00,,,0.00,WUHU216HW,2013-02-20 12:20:00,
2013-02-20 07:25:00,15.7,8.8,30.01,West,270,5.6,10.7,74,0.00,,,0.00,WUHU216HW,2013-02-20 12:25:00,
2013-02-20 07:30:00,15.8,9.0,30.01,West,270,2.0,10.7,74,0.00,,,0.00,WUHU216HW,2013-02-20 12:30:00,
2013-02-20 07:35:00,15.8,8.6,30.01,WNW,293,6.5,10.5,73,0.00,,,0.00,WUHU216HW,2013-02-20 12:35:00,
2013-02-20 07:40:00,16.0,9.2,30.02,WSW,248,9.2,10.5,74,0.00,,,0.00,WUHU216HW,2013-02-20 12:40:00,
2013-02-20 07:45:00,16.0,8.8,30.02,West,270,6.7,10.5,73,0.00,,,0.00,WUHU216HW,2013-02-20 12:45:00,
2013-02-20 07:50:00,16.2,9.0,30.02,WNW,293,5.8,10.1,73,0.00,,,0.00,WUHU216HW,2013-02-20 12:50:00,
2013-02-20 07:55:00,16.2,9.0,30.02,West,270,7.6,11.2,73,0.00,,,0.00,WUHU216HW,2013-02-20 12:55:00,
2013-02-20 08:00:00,16.2,8.7,30.02,West,270,10.3,13.9,72,0.00,,,0.00,WUHU216HW,2013-02-20 13:00:00,
2013-02-20 08:05:00,16.4,8.9,30.02,WNW,293,9.2,13.9,72,0.00,,,0.00,WUHU216HW,2013-02-20 13:05:00,
2013-02-20 08:10:00,16.4,8.9,30.02,West,270,7.6,12.5,72,0.00,,,0.00,WUHU216HW,2013-02-20 13:10:00,
2013-02-20 08:15:00,16.6,9.1,30.02,NNW,338,6.0,12.8,72,0.00,,,0.00,WUHU216HW,2013-02-20 13:15:00,
2013-02-20 08:20:00,16.6,9.1,30.02,North,0,12.1,15.2,72,0.00,,,0.00,WUHU216HW,2013-02-20 13:20:00,
2013-02-20 08:25:00,16.7,9.3,30.03,WSW,248,8.3,15.2,72,0.00,,,0.00,WUHU216HW,2013-02-20 13:25:00,
2013-02-20 08:30:00,16.9,9.5,30.03,West,270,9.6,13.2,72,0.00,,,0.00,WUHU216HW,2013-02-20 13:30:00,
2013-02-20 08:35:00,17.1,9.3,30.03,NW,315,6.0,15.9,71,0.00,,,0.00,WUHU216HW,2013-02-20 13:35:00,
2013-02-20 08:40:00,17.3,9.7,30.03,WNW,293,8.5,15.9,72,0.00,,,0.00,WUHU216HW,2013-02-20 13:40:00,
2013-02-20 08:45:00,17.6,10.1,30.03,West,270,9.8,10.5,72,0.00,,,0.00,WUHU216HW,2013-02-20 13:45:00,
2013-02-20 08:50:00,17.6,9.8,30.03,NNW,338,9.8,14.3,71,0.00,,,0.00,WUHU216HW,2013-02-20 13:50:00,
2013-02-20 08:55:00,18.0,10.2,30.03,West,270,7.4,14.3,71,0.00,,,0.00,WUHU216HW,2013-02-20 13:55:00,
2013-02-20 09:00:00,18.4,10.4,30.03,West,270,7.4,13.2,71,0.00,,,0.00,WUHU216HW,2013-02-20 14:00:00,
2013-02-20 09:05:00,18.4,10.4,30.03,WNW,293,9.4,12.8,71,0.00,,,0.00,WUHU216HW,2013-02-20 14:05:00,
2013-02-20 09:10:00,18.5,10.6,30.03,WSW,248,6.7,14.3,71,0.00,,,0.00,WUHU216HW,2013-02-20 14:10:00,
2013-02-20 09:15:00,18.7,10.8,30.03,West,270,12.1,14.3,71,0.00,,,0.00,WUHU216HW,2013-02-20 14:15:00,
2013-02-20 09:20:00,19.1,11.2,30.03,West,270,9.6,12.1,71,0.00,,,0.00,WUHU216HW,2013-02-20 14:20:00,
2013-02-20 09:25:00,19.6,11.6,30.04,WNW,293,10.3,12.1,71,0.00,,,0.00,WUHU216HW,2013-02-20 14:25:00,
2013-02-20 09:30:00,20.2,11.9,30.04,WNW,293,10.3,12.8,70,0.00,,,0.00,WUHU216HW,2013-02-20 14:30:00,
2013-02-20 09:35:00,20.2,11.5,30.04,NNW,338,6.3,12.8,69,0.00,,,0.00,WUHU216HW,2013-02-20 14:35:00,
2013-02-20 09:40:00,20.2,11.5,30.04,West,270,7.4,12.8,69,0.00,,,0.00,WUHU216HW,2013-02-20 14:40:00,
2013-02-20 09:45:00,20.2,11.5,30.04,WNW,293,8.3,11.9,69,0.00,,,0.00,WUHU216HW,2013-02-20 14:45:00,
2013-02-20 09:50:00,20.3,11.7,30.04,West,270,10.5,11.9,69,0.00,,,0.00,WUHU216HW,2013-02-20 14:50:00,
2013-02-20 09:55:00,20.3,11.7,30.04,West,270,9.2,11.4,69,0.00,,,0.00,WUHU216HW,2013-02-20 14:55:00,
2013-02-20 10:00:00,20.3,11.7,30.04,West,270,5.4,11.9,69,0.00,,,0.00,WUHU216HW,2013-02-20 15:00:00,
2013-02-20 10:05:00,20.5,11.9,30.04,WNW,293,11.9,16.8,69,0.00,,,0.00,WUHU216HW,2013-02-20 15:05:00,
2013-02-20 10:10:00,20.7,11.7,30.04,West,270,12.1,16.8,68,0.00,,,0.00,WUHU216HW,2013-02-20 15:10:00,
2013-02-20 10:15:00,20.9,11.9,30.04,NNW,338,9.4,15.2,68,0.00,,,0.00,WUHU216HW,2013-02-20 15:15:00,
2013-02-20 10:20:00,20.7,11.4,30.05,WNW,293,6.7,15.2,67,0.00,,,0.00,WUHU216HW,2013-02-20 15:20:00,
2013-02-20 10:25:00,20.7,11.4,30.05,West,270,8.7,14.3,67,0.00,,,0.00,WUHU216HW,2013-02-20 15:25:00,
2013-02-20 10:30:00,20.7,11.4,30.05,WNW,293,6.5,14.3,67,0.00,,,0.00,WUHU216HW,2013-02-20 15:30:00,
2013-02-20 10:35:00,20.9,11.6,30.05,WNW,293,8.1,13.2,67,0.00,,,0.00,WUHU216HW,2013-02-20 15:35:00,
2013-02-20 10:40:00,20.9,11.6,30.05,WNW,293,5.4,12.1,67,0.00,,,0.00,WUHU216HW,2013-02-20 15:40:00,
2013-02-20 10:45:00,21.1,11.8,30.05,West,270,7.2,12.1,67,0.00,,,0.00,WUHU216HW,2013-02-20 15:45:00,
2013-02-20 10:50:00,20.7,11.4,30.06,WNW,293,7.4,13.4,67,0.00,,,0.00,WUHU216HW,2013-02-20 15:50:00,
2013-02-20 10:55:00,20.5,11.3,30.06,West,270,7.2,14.8,67,0.00,,,0.00,WUHU216HW,2013-02-20 15:55:00,
2013-02-20 11:00:00,20.5,11.5,30.06,West,270,7.8,14.8,68,0.00,,,0.00,WUHU216HW,2013-02-20 16:00:00,
2013-02-20 11:05:00,20.5,11.5,30.06,West,270,8.5,12.3,68,0.00,,,0.00,WUHU216HW,2013-02-20 16:05:00,
2013-02-20 11:10:00,20.5,11.5,30.06,North,0,13.0,13.0,68,0.00,,,0.00,WUHU216HW,2013-02-20 16:10:00,
2013-02-20 11:15:00,20.7,11.7,30.07,NNW,338,13.4,13.9,68,0.00,,,0.00,WUHU216HW,2013-02-20 16:15:00,
2013-02-20 11:20:00,20.5,11.5,30.07,NNW,338,9.2,13.9,68,0.00,,,0.00,WUHU216HW,2013-02-20 16:20:00,
2013-02-20 11:25:00,20.5,11.9,30.07,SW,225,8.9,13.4,69,0.00,,,0.00,WUHU216HW,2013-02-20 16:25:00,
2013-02-20 11:30:00,20.5,11.9,30.07,WNW,293,11.4,12.3,69,0.00,,,0.00,WUHU216HW,2013-02-20 16:30:00,
2013-02-20 11:35:00,20.5,11.5,30.07,NNW,338,10.1,12.3,68,0.00,,,0.00,WUHU216HW,2013-02-20 16:35:00,
2013-02-20 11:40:00,20.9,11.9,30.07,NW,315,7.2,11.9,68,0.00,,,0.00,WUHU216HW,2013-02-20 16:40:00,
2013-02-20 11:45:00,20.9,11.9,30.07,NW,315,9.6,13.0,68,0.00,,,0.00,WUHU216HW,2013-02-20 16:45:00,
2013-02-20 11:50:00,21.2,12.0,30.07,West,270,5.4,13.0,67,0.00,,,0.00,WUHU216HW,2013-02-20 16:50:00,
2013-02-20 11:55:00,21.2,12.0,30.07,NNW,338,7.4,12.1,67,0.00,,,0.00,WUHU216HW,2013-02-20 16:55:00,
2013-02-20 12:00:00,21.2,12.0,30.07,WNW,293,11.4,11.4,67,0.00,,,0.00,WUHU216HW,2013-02-20 17:00:00,
2013-02-20 12:05:00,21.2,11.6,30.08,West,270,10.1,13.6,66,0.00,,,0.00,WUHU216HW,2013-02-20 17:05:00,
2013-02-20 12:10:00,21.1,11.4,30.08,WNW,293,8.1,13.6,66,0.00,,,0.00,WUHU216HW,2013-02-20 17:10:00,
2013-02-20 12:15:00,21.1,11.4,30.08,WSW,248,5.1,12.8,66,0.00,,,0.00,WUHU216HW,2013-02-20 17:15:00,
2013-02-20 12:20:00,21.2,11.6,30.08,West,270,11.4,13.0,66,0.00,,,0.00,WUHU216HW,2013-02-20 17:20:00,
2013-02-20 12:25:00,21.2,11.3,30.08,NW,315,10.3,17.4,65,0.00,,,0.00,WUHU216HW,2013-02-20 17:25:00,
2013-02-20 12:30:00,21.2,11.3,30.08,WNW,293,4.0,17.4,65,0.00,,,0.00,WUHU216HW,2013-02-20 17:30:00,
2013-02-20 12:35:00,21.6,11.6,30.08,West,270,6.9,13.0,65,0.00,,,0.00,WUHU216HW,2013-02-20 17:35:00,
2013-02-20 12:40:00,21.6,12.0,30.08,NNW,338,4.7,13.0,66,0.00,,,0.00,WUHU216HW,2013-02-20 17:40:00,
2013-02-20 12:45:00,21.8,11.8,30.08,NW,315,7.4,11.9,65,0.00,,,0.00,WUHU216HW,2013-02-20 17:45:00,
2013-02-20 12:50:00,22.0,12.0,30.09,WNW,293,9.4,12.1,65,0.00,,,0.00,WUHU216HW,2013-02-20 17:50:00,
2013-02-20 12:55:00,22.0,12.0,30.09,SW,225,5.1,12.1,65,0.00,,,0.00,WUHU216HW,2013-02-20 17:55:00,
2013-02-20 13:00:00,22.0,12.0,30.08,NW,315,5.4,15.2,65,0.00,,,0.00,WUHU216HW,2013-02-20 18:00:00,
2013-02-20 13:05:00,22.0,12.0,30.09,NW,315,8.5,15.2,65,0.00,,,0.00,WUHU216HW,2013-02-20 18:05:00,
2013-02-20 13:10:00,22.1,12.4,30.09,NW,315,7.8,12.8,66,0.00,,,0.00,WUHU216HW,2013-02-20 18:10:00,
2013-02-20 13:15:00,22.1,12.4,30.09,WSW,248,8.7,10.5,66,0.00,,,0.00,WUHU216HW,2013-02-20 18:15:00,
2013-02-20 13:20:00,22.1,12.1,30.09,WNW,293,6.9,11.6,65,0.00,,,0.00,WUHU216HW,2013-02-20 18:20:00,
2013-02-20 13:25:00,22.1,12.1,30.09,WSW,248,5.8,11.6,65,0.00,,,0.00,WUHU216HW,2013-02-20 18:25:00,
2013-02-20 13:30:00,22.1,12.1,30.09,West,270,6.9,10.1,65,0.00,,,0.00,WUHU216HW,2013-02-20 18:30:00,
2013-02-20 13:35:00,22.3,12.2,30.09,WNW,293,8.7,10.1,65,0.00,,,0.00,WUHU216HW,2013-02-20 18:35:00,
2013-02-20 13:40:00,22.3,12.2,30.09,West,270,10.3,11.4,65,0.00,,,0.00,WUHU216HW,2013-02-20 18:40:00,
2013-02-20 13:45:00,22.3,12.2,30.09,West,270,6.3,11.4,65,0.00,,,0.00,WUHU216HW,2013-02-20 18:45:00,
2013-02-20 13:50:00,22.1,12.4,30.09,West,270,3.4,12.1,66,0.00,,,0.00,WUHU216HW,2013-02-20 18:50:00,
2013-02-20 13:55:00,22.3,12.6,30.09,NNW,338,4.3,12.1,66,0.00,,,0.00,WUHU216HW,2013-02-20 18:55:00,
2013-02-20 14:00:00,22.3,12.6,30.10,WSW,248,5.1,8.7,66,0.00,,,0.00,WUHU216HW,2013-02-20 19:00:00,
2013-02-20 14:05:00,22.3,12.6,30.09,NNW,338,4.5,8.5,66,0.00,,,0.00,WUHU216HW,2013-02-20 19:05:00,
2013-02-20 14:10:00,22.3,12.6,30.10,West,270,6.0,9.8,66,0.00,,,0.00,WUHU216HW,2013-02-20 19:10:00,
2013-02-20 14:15:00,22.3,12.6,30.10,NNW,338,8.1,13.0,66,0.00,,,0.00,WUHU216HW,2013-02-20 19:15:00,
2013-02-20 14:20:00,22.3,12.6,30.10,NW,315,4.9,13.0,66,0.00,,,0.00,WUHU216HW,2013-02-20 19:20:00,
2013-02-20 14:25:00,22.3,12.6,30.10,West,270,6.5,8.9,66,0.00,,,0.00,WUHU216HW,2013-02-20 19:25:00,
2013-02-20 14:30:00,22.1,12.4,30.10,West,270,6.0,9.2,66,0.00,,,0.00,WUHU216HW,2013-02-20 19:30:00,
2013-02-20 14:35:00,22.1,12.8,30.10,WSW,248,5.8,9.4,67,0.00,,,0.00,WUHU216HW,2013-02-20 19:35:00,
2013-02-20 14:40:00,22.3,13.0,30.09,WNW,293,4.0,12.5,67,0.00,,,0.00,WUHU216HW,2013-02-20 19:40:00,
2013-02-20 14:45:00,22.3,13.0,30.10,WNW,293,6.9,12.5,67,0.00,,,0.00,WUHU216HW,2013-02-20 19:45:00,
2013-02-20 14:50:00,22.1,13.1,30.09,NNW,338,5.4,10.3,68,0.00,,,0.00,WUHU216HW,2013-02-20 19:50:00,
2013-02-20 14:55:00,22.3,13.3,30.09,WNW,293,4.0,8.5,68,0.00,,,0.00,WUHU216HW,2013-02-20 19:55:00,
2013-02-20 15:00:00,22.5,13.9,30.09,West,270,6.3,8.5,69,0.00,,,0.00,WUHU216HW,2013-02-20 20:00:00,
2013-02-20 15:05:00,22.7,13.7,30.09,West,270,8.5,9.2,68,0.00,,,0.00,WUHU216HW,2013-02-20 20:05:00,
2013-02-20 15:10:00,22.7,13.7,30.10,WSW,248,8.3,9.2,68,0.00,,,0.00,WUHU216HW,2013-02-20 20:10:00,
2013-02-20 15:15:00,22.5,13.5,30.10,WSW,248,6.9,9.8,68,0.00,,,0.00,WUHU216HW,2013-02-20 20:15:00,
2013-02-20 15:20:00,22.3,13.3,30.10,WSW,248,6.9,11.4,68,0.00,,,0.00,WUHU216HW,2013-02-20 20:20:00,
2013-02-20 15:25:00,22.0,13.0,30.10,WNW,293,5.4,13.4,68,0.00,,,0.00,WUHU216HW,2013-02-20 20:25:00,
2013-02-20 15:30:00,22.0,13.3,30.11,WNW,293,8.5,13.4,69,0.00,,,0.00,WUHU216HW,2013-02-20 20:30:00,
2013-02-20 15:35:00,22.0,13.3,30.11,West,270,7.6,10.5,69,0.00,,,0.00,WUHU216HW,2013-02-20 20:35:00,
2013-02-20 15:40:00,22.0,13.3,30.11,WNW,293,4.3,9.2,69,0.00,,,0.00,WUHU216HW,2013-02-20 20:40:00,
2013-02-20 15:45:00,22.0,13.0,30.12,West,270,5.1,9.2,68,0.00,,,0.00,WUHU216HW,2013-02-20 20:45:00,
2013-02-20 15:50:00,22.0,13.0,30.12,WNW,293,3.1,9.2,68,0.00,,,0.00,WUHU216HW,2013-02-20 20:50:00,
2013-02-20 15:55:00,22.0,13.3,30.12,NNW,338,9.6,9.8,69,0.00,,,0.00,WUHU216HW,2013-02-20 20:55:00,
2013-02-20 16:00:00,22.0,13.3,30.12,SW,225,8.1,9.8,69,0.00,,,0.00,WUHU216HW,2013-02-20 21:00:00,
2013-02-20 16:05:00,22.0,13.3,30.13,WSW,248,5.4,9.8,69,0.00,,,0.00,WUHU216HW,2013-02-20 21:05:00,
2013-02-20 16:10:00,22.0,13.3,30.13,WNW,293,5.8,10.3,69,0.00,,,0.00,WUHU216HW,2013-02-20 21:10:00,
2013-02-20 16:15:00,22.1,13.1,30.13,WNW,293,5.1,10.3,68,0.00,,,0.00,WUHU216HW,2013-02-20 21:15:00,
2013-02-20 16:20:00,22.1,13.5,30.14,WNW,293,4.3,8.3,69,0.00,,,0.00,WUHU216HW,2013-02-20 21:20:00,
2013-02-20 16:25:00,22.1,13.1,30.14,WNW,293,7.6,7.6,68,0.00,,,0.00,WUHU216HW,2013-02-20 21:25:00,
2013-02-20 16:30:00,22.1,13.1,30.14,West,270,3.8,7.6,68,0.00,,,0.00,WUHU216HW,2013-02-20 21:30:00,
2013-02-20 16:35:00,22.1,13.1,30.15,WNW,293,7.6,10.5,68,0.00,,,0.00,WUHU216HW,2013-02-20 21:35:00,
2013-02-20 16:40:00,22.0,13.0,30.15,WNW,293,9.8,11.0,68,0.00,,,0.00,WUHU216HW,2013-02-20 21:40:00,
2013-02-20 16:45:00,22.0,13.0,30.15,WSW,248,6.3,11.0,68,0.00,,,0.00,WUHU216HW,2013-02-20 21:45:00,
2013-02-20 16:50:00,21.8,13.1,30.15,West,270,5.4,9.8,69,0.00,,,0.00,WUHU216HW,2013-02-20 21:50:00,
2013-02-20 16:55:00,21.8,13.1,30.15,WNW,293,3.4,9.8,69,0.00,,,0.00,WUHU216HW,2013-02-20 21:55:00,
2013-02-20 17:00:00,21.8,13.1,30.15,WNW,293,6.9,11.9,69,0.00,,,0.00,WUHU216HW,2013-02-20 22:00:00,
2013-02-20 17:05:00,21.8,13.1,30.15,NW,315,6.0,11.9,69,0.00,,,0.00,WUHU216HW,2013-02-20 22:05:00,
2013-02-20 17:10:00,21.8,13.1,30.15,WSW,248,7.6,12.5,69,0.00,,,0.00,WUHU216HW,2013-02-20 22:10:00,
2013-02-20 17:15:00,21.6,13.0,30.16,West,270,4.0,12.5,69,0.00,,,0.00,WUHU216HW,2013-02-20 22:15:00,
2013-02-20 17:20:00,21.6,13.0,30.16,West,270,7.4,11.4,69,0.00,,,0.00,WUHU216HW,2013-02-20 22:20:00,
2013-02-20 17:25:00,21.6,13.0,30.15,WSW,248,6.0,9.8,69,0.00,,,0.00,WUHU216HW,2013-02-20 22:25:00,
2013-02-20 17:30:00,21.6,13.3,30.16,West,270,2.9,9.8,70,0.00,,,0.00,WUHU216HW,2013-02-20 22:30:00,
2013-02-20 17:35:00,21.6,13.3,30.15,SW,225,8.9,8.9,70,0.00,,,0.00,WUHU216HW,2013-02-20 22:35:00,
2013-02-20 17:40:00,21.6,13.3,30.15,NW,315,9.2,9.2,70,0.00,,,0.00,WUHU216HW,2013-02-20 22:40:00,
2013-02-20 17:45:00,21.6,13.3,30.15,West,270,5.1,14.1,70,0.00,,,0.00,WUHU216HW,2013-02-20 22:45:00,
2013-02-20 17:50:00,21.6,13.3,30.15,WSW,248,9.4,14.1,70,0.00,,,0.00,WUHU216HW,2013-02-20 22:50:00,
2013-02-20 17:55:00,21.6,13.3,30.15,NW,315,3.8,9.8,70,0.00,,,0.00,WUHU216HW,2013-02-20 22:55:00,
2013-02-20 18:00:00,21.6,13.6,30.15,WNW,293,3.1,9.6,71,0.00,,,0.00,WUHU216HW,2013-02-20 23:00:00,
2013-02-20 18:05:00,21.6,13.6,30.14,NW,315,8.3,8.7,71,0.00,,,0.00,WUHU216HW,2013-02-20 23:05:00,
2013-02-20 18:10:00,21.4,13.8,30.14,North,0,5.8,8.7,72,0.00,,,0.00,WUHU216HW,2013-02-20 23:10:00,
2013-02-20 18:15:00,21.4,13.4,30.14,NW,315,7.6,11.4,71,0.00,,,0.00,WUHU216HW,2013-02-20 23:15:00,
2013-02-20 18:20:00,21.4,13.8,30.14,West,270,4.9,11.4,72,0.00,,,0.00,WUHU216HW,2013-02-20 23:20:00,
2013-02-20 18:25:00,21.4,13.4,30.14,NW,315,7.8,10.5,71,0.00,,,0.00,WUHU216HW,2013-02-20 23:25:00,
2013-02-20 18:30:00,21.4,13.8,30.14,WNW,293,6.0,9.8,72,0.00,,,0.00,WUHU216HW,2013-02-20 23:30:00,
2013-02-20 18:35:00,21.4,13.8,30.14,NNW,338,5.6,9.8,72,0.00,,,0.00,WUHU216HW,2013-02-20 23:35:00,
2013-02-20 18:40:00,21.4,13.8,30.14,NNW,338,4.5,8.9,72,0.00,,,0.00,WUHU216HW,2013-02-20 23:40:00,
2013-02-20 18:45:00,21.4,13.8,30.15,WNW,293,7.8,9.8,72,0.00,,,0.00,WUHU216HW,2013-02-20 23:45:00,
2013-02-20 18:50:00,21.4,13.8,30.15,West,270,6.5,9.8,72,0.00,,,0.00,WUHU216HW,2013-02-20 23:50:00,
2013-02-20 18:55:00,21.4,13.8,30.14,West,270,2.2,11.9,72,0.00,,,0.00,WUHU216HW,2013-02-20 23:55:00,
2013-02-20 19:00:00,21.6,14.0,30.15,West,270,4.3,11.9,72,0.00,,,0.00,WUHU216HW,2013-02-21 00:00:00,
2013-02-20 19:05:00,21.6,14.0,30.15,NNW,338,9.2,9.2,72,0.00,,,0.00,WUHU216HW,2013-02-21 00:05:00,
2013-02-20 19:10:00,21.6,14.0,30.15,WNW,293,5.4,9.2,72,0.00,,,0.00,WUHU216HW,2013-02-21 00:10:00,
2013-02-20 19:15:00,21.6,14.2,30.15,WNW,293,7.6,9.2,73,0.00,,,0.00,WUHU216HW,2013-02-21 00:15:00,
2013-02-20 19:20:00,21.6,14.2,30.15,NW,315,8.3,8.5,73,0.00,,,0.00,WUHU216HW,2013-02-21 00:20:00,
2013-02-20 19:25:00,21.6,14.2,30.15,North,0,5.4,8.5,73,0.00,,,0.00,WUHU216HW,2013-02-21 00:25:00,
2013-02-20 19:30:00,21.6,14.2,30.15,SSW,203,0.9,10.5,73,0.00,,,0.00,WUHU216HW,2013-02-21 00:30:00,
2013-02-20 19:35:00,21.6,14.2,30.15,North,0,4.3,10.5,73,0.00,,,0.00,WUHU216HW,2013-02-21 00:35:00,
2013-02-20 19:40:00,21.6,14.2,30.15,WNW,293,6.7,7.6,73,0.00,,,0.00,WUHU216HW,2013-02-21 00:40:00,
2013-02-20 19:45:00,21.6,14.2,30.15,WNW,293,4.3,10.1,73,0.00,,,0.00,WUHU216HW,2013-02-21 00:45:00,
2013-02-20 19:50:00,21.6,14.2,30.15,WSW,248,6.3,10.1,73,0.00,,,0.00,WUHU216HW,2013-02-21 00:50:00,
2013-02-20 19:55:00,21.8,14.4,30.15,North,0,4.7,8.5,73,0.00,,,0.00,WUHU216HW,2013-02-21 00:55:00,
2013-02-20 20:00:00,21.8,14.4,30.15,West,270,2.7,10.3,73,0.00,,,0.00,WUHU216HW,2013-02-21 01:00:00,
2013-02-20 20:05:00,21.8,14.4,30.15,NW,315,8.5,10.3,73,0.00,,,0.00,WUHU216HW,2013-02-21 01:05:00,
2013-02-20 20:10:00,21.8,14.4,30.15,West,270,7.2,9.2,73,0.00,,,0.00,WUHU216HW,2013-02-21 01:10:00,
2013-02-20 20:15:00,21.8,14.4,30.15,NW,315,4.7,9.2,73,0.00,,,0.00,WUHU216HW,2013-02-21 01:15:00,
2013-02-20 20:20:00,21.8,14.4,30.15,NNW,338,8.5,8.9,73,0.00,,,0.00,WUHU216HW,2013-02-21 01:20:00,
2013-02-20 20:25:00,21.8,14.4,30.15,East,90,4.5,9.2,73,0.00,,,0.00,WUHU216HW,2013-02-21 01:25:00,
2013-02-20 20:30:00,21.8,14.4,30.16,WSW,248,3.8,9.2,73,0.00,,,0.00,WUHU216HW,2013-02-21 01:30:00,
2013-02-20 20:35:00,22.0,15.0,30.15,NNW,338,7.6,12.1,74,0.00,,,0.00,WUHU216HW,2013-02-21 01:35:00,
2013-02-20 20:40:00,22.0,15.0,30.16,WNW,293,3.4,12.1,74,0.00,,,0.00,WUHU216HW,2013-02-21 01:40:00,
2013-02-20 20:45:00,22.0,15.0,30.16,NW,315,4.7,11.4,74,0.00,,,0.00,WUHU216HW,2013-02-21 01:45:00,
2013-02-20 20:50:00,22.0,15.0,30.16,NW,315,11.0,11.4,74,0.00,,,0.00,WUHU216HW,2013-02-21 01:50:00,
2013-02-20 20:55:00,22.0,15.0,30.16,NNW,338,2.5,11.0,74,0.00,,,0.00,WUHU216HW,2013-02-21 01:55:00,
2013-02-20 21:00:00,22.0,15.0,30.16,NW,315,4.3,9.8,74,0.00,,,0.00,WUHU216HW,2013-02-21 02:00:00,
2013-02-20 21:05:00,22.0,15.2,30.16,WNW,293,4.7,9.8,75,0.00,,,0.00,WUHU216HW,2013-02-21 02:05:00,
2013-02-20 21:10:00,22.0,15.2,30.16,WNW,293,3.4,11.0,75,0.00,,,0.00,WUHU216HW,2013-02-21 02:10:00,
2013-02-20 21:15:00,22.0,15.2,30.16,NW,315,6.9,12.5,75,0.00,,,0.00,WUHU216HW,2013-02-21 02:15:00,
2013-02-20 21:20:00,22.0,15.2,30.17,WNW,293,6.3,12.5,75,0.00,,,0.00,WUHU216HW,2013-02-21 02:20:00,
2013-02-20 21:25:00,22.0,15.5,30.17,NW,315,4.3,12.5,76,0.00,,,0.00,WUHU216HW,2013-02-21 02:25:00,
2013-02-20 21:30:00,21.8,15.0,30.17,NNW,338,4.9,12.5,75,0.00,,,0.00,WUHU216HW,2013-02-21 02:30:00,
2013-02-20 21:35:00,21.8,15.0,30.17,NNW,338,6.9,11.4,75,0.00,,,0.00,WUHU216HW,2013-02-21 02:35:00,
2013-02-20 21:40:00,21.8,15.0,30.17,WSW,248,6.3,11.4,75,0.00,,,0.00,WUHU216HW,2013-02-21 02:40:00,
2013-02-20 21:45:00,21.8,15.0,30.16,NNW,338,9.2,12.8,75,0.00,,,0.00,WUHU216HW,2013-02-21 02:45:00,
2013-02-20 21:50:00,21.8,15.0,30.17,WNW,293,4.9,12.8,75,0.00,,,0.00,WUHU216HW,2013-02-21 02:50:00,
2013-02-20 21:55:00,21.8,15.0,30.17,NNW,338,3.4,9.4,75,0.00,,,0.00,WUHU216HW,2013-02-21 02:55:00,
2013-02-20 22:00:00,21.6,14.9,30.17,NW,315,2.7,7.8,75,0.00,,,0.00,WUHU216HW,2013-02-21 03:00:00,
2013-02-20 22:05:00,21.6,15.1,30.17,NNW,338,9.8,9.8,76,0.00,,,0.00,WUHU216HW,2013-02-21 03:05:00,
2013-02-20 22:10:00,21.6,15.1,30.17,North,0,5.8,9.8,76,0.00,,,0.00,WUHU216HW,2013-02-21 03:10:00,
2013-02-20 22:15:00,21.6,15.1,30.17,WNW,293,3.6,9.8,76,0.00,,,0.00,WUHU216HW,2013-02-21 03:15:00,
2013-02-20 22:20:00,21.6,15.5,30.17,North,0,5.8,9.6,77,0.00,,,0.00,WUHU216HW,2013-02-21 03:20:00,
2013-02-20 22:25:00,21.4,15.3,30.17,NW,315,6.3,9.8,77,0.00,,,0.00,WUHU216HW,2013-02-21 03:25:00,
2013-02-20 22:30:00,21.4,15.3,30.17,WNW,293,9.2,14.8,77,0.00,,,0.00,WUHU216HW,2013-02-21 03:30:00,
2013-02-20 22:35:00,21.4,15.3,30.17,NNW,338,7.6,14.8,77,0.00,,,0.00,WUHU216HW,2013-02-21 03:35:00,
2013-02-20 22:40:00,21.4,14.9,30.17,WNW,293,3.4,9.8,76,0.00,,,0.00,WUHU216HW,2013-02-21 03:40:00,
2013-02-20 22:45:00,21.4,14.9,30.17,NNE,23,7.8,8.7,76,0.00,,,0.00,WUHU216HW,2013-02-21 03:45:00,
2013-02-20 22:50:00,21.2,14.8,30.17,NNW,338,11.6,11.6,76,0.00,,,0.00,WUHU216HW,2013-02-21 03:50:00,
2013-02-20 22:55:00,21.2,14.8,30.17,North,0,3.4,13.2,76,0.00,,,0.00,WUHU216HW,2013-02-21 03:55:00,
2013-02-20 23:00:00,21.2,14.8,30.17,North,0,2.9,13.2,76,0.00,,,0.00,WUHU216HW,2013-02-21 04:00:00,
2013-02-20 23:05:00,21.2,14.8,30.17,NNE,23,2.5,7.6,76,0.00,,,0.00,WUHU216HW,2013-02-21 04:05:00,
2013-02-20 23:10:00,21.2,14.5,30.18,North,0,7.4,7.6,75,0.00,,,0.00,WUHU216HW,2013-02-21 04:10:00,
2013-02-20 23:15:00,21.2,14.5,30.18,NW,315,3.4,7.6,75,0.00,,,0.00,WUHU216HW,2013-02-21 04:15:00,
2013-02-20 23:20:00,21.2,14.8,30.18,NNW,338,8.3,12.1,76,0.00,,,0.00,WUHU216HW,2013-02-21 04:20:00,
2013-02-20 23:25:00,21.1,14.6,30.18,NNW,338,4.9,12.1,76,0.00,,,0.00,WUHU216HW,2013-02-21 04:25:00,
2013-02-20 23:30:00,21.1,14.6,30.18,West,270,5.6,11.4,76,0.00,,,0.00,WUHU216HW,2013-02-21 04:30:00,
2013-02-20 23:35:00,21.1,14.6,30.18,NNW,338,7.2,11.4,76,0.00,,,0.00,WUHU216HW,2013-02-21 04:35:00,
2013-02-20 23:40:00,21.1,14.6,30.17,West,270,4.5,10.7,76,0.00,,,0.00,WUHU216HW,2013-02-21 04:40:00,
2013-02-20 23:45:00,21.1,14.6,30.17,NW,315,4.0,8.7,76,0.00,,,0.00,WUHU216HW,2013-02-21 04:45:00,
2013-02-20 23:50:00,20.9,14.4,30.17,NNW,338,4.5,8.3,76,0.00,,,0.00,WUHU216HW,2013-02-21 04:50:00,
2013-02-20 23:55:00,20.9,14.8,30.17,NNW,338,7.2,8.3,77,0.00,,,0.00,WUHU216HW,2013-02-21 04:55:00,